Topeka Forbes, KS

11:23 AM CDT on April 30, 2017 (GMT -0500)
Forbes

Weather History for KFOE - March, 2013

Change the Weather History Date:

Monday, March 18, 2013

  Actual Average Record
Temperature  
Mean Temperature 44 °F -  
Max Temperature 55 °F 55 °F 80 °F (1978)
Min Temperature 33 °F 34 °F 8 °F (1960)
Degree Days  
Heating Degree Days 21    
Moisture  
Dew Point 27 °F    
Average Humidity 64    
Maximum Humidity 100    
Minimum Humidity 24    
Precipitation  
Precipitation 0.01 in - - ()
Sea Level Pressure  
Sea Level Pressure 29.90 in    
Wind  
Wind Speed 9 mph (NW)    
Max Wind Speed 24 mph    
Max Gust Speed 32 mph    
Visibility 8 miles    
Events      
Averages and records for this station are not official NWS values.
T = Trace of Precipitation, MM = Missing Value Source: NWS Daily Summary

Daily Weather History Graph

Daily Weather History Graph

Search for Another Location

Airport or City:

Trip Planner

Search our weather history database for the weather conditions in past years. The results will help you decide how hot, cold, wet, or windy it might be!

Date:

Astronomy

Mar. 18, 2013 Rise Set
Actual Time 7:28 AM CDT 7:32 PM CDT
Civil Twilight 7:02 AM CDT 7:59 PM CDT
Nautical Twilight 6:31 AM CDT 8:30 PM CDT
Astronomical Twilight 5:59 AM CDT 9:02 PM CDT
Moon 11:32 AM CDT (3/18) 1:30 AM CDT (3/18)
Length of Visible Light 12h 57m
Length of Day
12h 04m
Waxing Crescent, 41% of the Moon is Illuminated
Mar 18
Waxing Crescent
Mar 19
First Quarter
Mar 27
Full
Apr 2
Last Quarter
Apr 10
New

Hourly Weather History & Observations

Time (CDT) Temp. Windchill Dew Point Humidity Pressure Visibility Wind Dir Wind Speed Gust Speed Precip Events Conditions
12:53 AM 35.1 °F - 34.0 °F 96% 29.79 in 4.0 mi Calm Calm - N/A   Overcast
1:02 AM 33.8 °F 28.6 °F 33.8 °F 100% 29.75 in 4.0 mi ENE 5.8 mph - N/A   Overcast
1:53 AM 35.1 °F - 34.0 °F 96% 29.80 in 6.0 mi Calm Calm - 0.00 in   Overcast
2:53 AM 35.1 °F 31.0 °F 34.0 °F 96% 29.81 in 5.0 mi West 4.6 mph - N/A   Overcast
3:28 AM 35.6 °F 30.7 °F 33.8 °F 93% 29.77 in 4.0 mi NW 5.8 mph - N/A   Overcast
3:53 AM 35.1 °F 32.2 °F 34.0 °F 96% 29.78 in 4.0 mi NW 3.5 mph - N/A   Overcast
4:53 AM 35.1 °F 29.3 °F 33.1 °F 92% 29.79 in 6.0 mi WNW 6.9 mph - N/A   Overcast
5:53 AM 35.1 °F 27.9 °F 33.1 °F 92% 29.81 in 8.0 mi NW 9.2 mph - N/A   Overcast
6:53 AM 36.0 °F 28.0 °F 33.1 °F 89% 29.84 in 9.0 mi WNW 11.5 mph - N/A   Overcast
7:53 AM 37.0 °F 28.5 °F 34.0 °F 89% 29.86 in 7.0 mi WNW 13.8 mph 21.9 mph N/A   Overcast
8:18 AM 37.4 °F 28.2 °F 33.8 °F 87% 29.84 in 8.0 mi NW 16.1 mph 21.9 mph N/A   Overcast
8:48 AM 39.2 °F 30.5 °F 35.6 °F 87% 29.85 in 10.0 mi NW 16.1 mph - N/A   Scattered Clouds
8:53 AM 39.0 °F 30.3 °F 35.1 °F 86% 29.87 in 10.0 mi NW 16.1 mph - N/A   Partly Cloudy
9:53 AM 42.1 °F 32.3 °F 30.9 °F 65% 29.90 in 10.0 mi NNW 24.2 mph 32.2 mph 0.01 in   Clear
10:53 AM 45.0 °F 37.6 °F 26.1 °F 48% 29.92 in 10.0 mi NNW 17.3 mph 26.5 mph N/A   Clear
11:53 AM 46.9 °F - 26.1 °F 44% 29.94 in 10.0 mi NW 16.1 mph - N/A   Clear
12:53 PM 48.9 °F - 27.0 °F 43% 29.93 in 10.0 mi WNW 13.8 mph 20.7 mph N/A   Clear
1:53 PM 52.0 °F - 26.1 °F 37% 29.93 in 10.0 mi WNW 19.6 mph 25.3 mph N/A   Clear
2:53 PM 53.1 °F - 25.0 °F 34% 29.92 in 10.0 mi North 13.8 mph 21.9 mph N/A   Partly Cloudy
3:53 PM 55.0 °F - 21.9 °F 28% 29.91 in 10.0 mi WNW 16.1 mph 31.1 mph N/A   Clear
4:53 PM 55.0 °F - 19.0 °F 24% 29.93 in 10.0 mi WNW 20.7 mph 32.2 mph N/A   Clear
5:53 PM 53.1 °F - 19.0 °F 26% 29.94 in 10.0 mi WNW 17.3 mph 25.3 mph N/A   Partly Cloudy
6:53 PM 50.0 °F - 17.1 °F 27% 29.97 in 10.0 mi NW 19.6 mph 29.9 mph N/A   Clear
7:53 PM 45.0 °F 39.7 °F 19.0 °F 36% 30.00 in 10.0 mi NNW 10.4 mph - N/A   Clear
8:53 PM 42.1 °F 37.1 °F 19.0 °F 40% 30.02 in 10.0 mi North 8.1 mph - N/A   Clear
9:53 PM 39.9 °F 35.8 °F 18.0 °F 41% 30.05 in 10.0 mi North 5.8 mph - N/A   Clear
10:53 PM 37.0 °F 33.3 °F 17.1 °F 44% 30.07 in 10.0 mi North 4.6 mph - N/A   Clear
11:53 PM 35.1 °F 27.9 °F 17.1 °F 48% 30.07 in 10.0 mi NNE 9.2 mph - N/A   Clear